Regional Weather Roundup
Issued by NWS

Home | Current Version | Previous Version | Text Only | Print | Product List | Glossary Off
Versions: 1 2 3 4 5 6 7 8 9 10 11 12 13 14 15 16 17 18 19 20 21 22 23 24 25 26 27 28 29 30 31 32 33 34 35 36 37 38 39 40 41 42 43 44 45 46 47 48 49 50

000
ASUS43 KBIS 251510
RWRND

NORTH DAKOTA REGIONAL WEATHER ROUNDUP
NATIONAL WEATHER SERVICE BISMARCK ND
1000 AM CDT MON MAY 25 2015

NOTE: "FAIR" INDICATES FEW OR NO CLOUDS BELOW 12,000 FEET WITH NO
SIGNIFICANT WEATHER AND/OR OBSTRUCTIONS TO VISIBILITY.


NDZ001>003-009>011-017-251600-
NORTHWEST NORTH DAKOTA

CITY           SKY/WX    TMP DP  RH WIND       PRES   REMARKS
WILLISTON      PTSUNNY   62  48  60 CALM      29.88S
MINOT          PTSUNNY   63  49  60 CALM      29.86S
MINOT AFB      PTSUNNY   69  53  57 W2        29.85S
$$

NDZ018>021-031>035-040>046-251600-
SOUTHWEST NORTH DAKOTA

CITY           SKY/WX    TMP DP  RH WIND       PRES   REMARKS
BISMARCK       LGT RAIN  58  56  93 N7        29.87R FOG
DICKINSON      LGT RAIN  55  52  89 NE7       29.88S FOG
GARRISON         N/A     62  53  72 W3        29.86S
HETTINGER ARPT LGT RAIN  54  52  93 NE10      29.88R FOG
$$

NDZ004>008-012>016-024-026-027-054-251600-
NORTHEAST NORTH DAKOTA

CITY           SKY/WX    TMP DP  RH WIND       PRES   REMARKS
GRAND FORKS    CLOUDY    64  52  64 W9        29.77F
GRND FRKS AFB  CLOUDY    65  48  55 NW9       29.78F
DEVILS LAKE    CLOUDY    63  46  55 NW3       29.83S
$$

NDZ022-023-025-028>030-036>039-047>053-251600-
SOUTHEAST NORTH DAKOTA

CITY           SKY/WX    TMP DP  RH WIND       PRES   REMARKS
FARGO          LGT RAIN  60  57  89 N9        29.77S
JAMESTOWN      LGT RAIN  61  56  83 N3        29.81S
$$



USA.gov is the U.S. government's official web portal to all federal, state and local government web resources and services.